Location: Igon
(43.1667°N, 0.2333°W)
Time: 21:51:56
(UTC+00:00)

Lacrosse 4 Rocket - Pass Details

Date: 29 November 2020
Orbit: 537 x 620 km, 68.0° (Epoch: 20 January)

Event Time Altitude Azimuth Distance (km) Brightness Sun altitude
Exits shadow 05:14:46 46° 236° (SW) 808 1.8 -20.7°
Drops below altitude 10° 05:18:46 10° 173° (S) 1,955 4.3 -20.0°
Sets 05:21:05 0° 168° (SSE) 2,864 5.3 -19.6°
